Weather History for MMIO - March, 2013

Change the Weather History Date:

Monday, March 4, 2013

  Actual Average Record
Temperature  
Mean Temperature 64 °F -  
Max Temperature 81 °F 71 °F 91 °F (2009)
Min Temperature 46 °F 50 °F 26 °F (2002)
Degree Days  
Heating Degree Days 2    
Growing Degree Days 14 (Base 50)    
Moisture  
Dew Point 33 °F    
Average Humidity 26    
Maximum Humidity 51    
Minimum Humidity 6    
Precipitation  
Precipitation 0.00 in - - ()
Sea Level Pressure  
Sea Level Pressure 29.99 in    
Wind  
Wind Speed 12 mph ()    
Max Wind Speed 29 mph    
Max Gust Speed -    
Visibility 9.3 miles    
Events      
Averages and records for this station are not official NWS values.
T = Trace of Precipitation, MM = Missing Value Source: Averaged Metar Reports

Daily Weather History Graph

Daily Weather History Graph

Search for Another Location

Airport or City:

Trip Planner

Search our weather history database for the weather conditions in past years. The results will help you decide how hot, cold, wet, or windy it might be!

Date:

Astronomy

Mar. 04, 2013 Rise Set
Actual Time 7:03 AM CST 6:47 PM CST
Civil Twilight 6:40 AM CST 7:10 PM CST
Nautical Twilight 6:14 AM CST 7:36 PM CST
Astronomical Twilight 5:47 AM CST 8:03 PM CST
Moon 12:51 AM CST 11:55 AM CST
Length of Visible Light 12h 29m
Length of Day
11h 43m
Waning Gibbous, 52% of the Moon is Illuminated
Mar 4
Waning Gibbous
Mar 4
Last Quarter
Mar 11
New
Mar 19
First Quarter
Mar 27
Full

Hourly Weather History & Observations

Time (CST) Temp. Dew Point Humidity Pressure Visibility Wind Dir Wind Speed Gust Speed Precip Events Conditions
2:30 AM 49 °F 14 °F 13% 29.96 in 3 mi South 6.7 mph - -   Clear
5:30 AM 49 °F 13 °F 13% 30.01 in 3 mi SSW 8.9 mph - -   Partly Cloudy
6:00 AM 57.2 °F 35.6 °F 44% 30.08 in 10.0 mi South 18.4 mph - N/A   Clear
6:40 AM 57.2 °F 37.4 °F 48% 30.08 in 10.0 mi South 16.1 mph - N/A   Clear
7:40 AM 57.2 °F 35.6 °F 44% 30.10 in 10.0 mi South 23.0 mph - N/A   Clear
8:30 AM 56 °F 16 °F 11% 30.06 in 12 mi South 11.2 mph - -  
8:40 AM 66.2 °F 32.0 °F 28% 30.12 in 10.0 mi SE 28.8 mph - N/A   Clear
9:40 AM 73.4 °F 32.0 °F 22% 30.12 in 10.0 mi SE 23.0 mph - N/A   Clear
10:40 AM 80.6 °F 32.0 °F 17% 30.12 in 10.0 mi SSE 17.3 mph - N/A   Clear
11:30 AM 75 °F 21 °F 6% 29.98 in 12 mi NW 11.2 mph - -  
11:40 AM 84.2 °F 42.8 °F 23% 30.08 in 10.0 mi South 16.1 mph - N/A   Clear
12:40 PM 86.0 °F 41.0 °F 20% 30.03 in 10.0 mi NNW 13.8 mph - N/A   Clear
1:40 PM 87.8 °F 39.2 °F 18% 30.01 in 10.0 mi SW 16.1 mph - N/A   Clear
2:30 PM 80 °F 24 °F 6% 29.79 in 12 mi SSW 11.2 mph - -  
2:40 PM 87.8 °F 39.2 °F 18% 29.98 in 10.0 mi WSW 17.3 mph - N/A   Clear
3:40 PM 86.0 °F 41.0 °F 20% 29.96 in 10.0 mi WNW 17.3 mph - N/A   Clear
4:40 PM 82.4 °F 46.4 °F 28% 29.96 in 10.0 mi West 13.8 mph - N/A   Clear
5:30 PM 75 °F 22 °F 6% 29.70 in 12 mi NW 13.4 mph - -  
5:40 PM 78.8 °F 46.4 °F 32% 29.96 in 10.0 mi NNW 17.3 mph - N/A   Clear
6:40 PM 77.0 °F 44.6 °F 32% 29.99 in 10.0 mi WSW 9.2 mph - N/A   Clear
7:40 PM 71.6 °F 44.6 °F 38% 30.01 in 10.0 mi South 11.5 mph - N/A   Clear
8:30 PM 57 °F 17 °F 11% 29.72 in 3 mi South 8.9 mph - -   Haze
8:40 PM 66.2 °F 42.8 °F 43% 30.02 in 10.0 mi South 5.8 mph - N/A   Clear
9:40 PM 62.6 °F 42.8 °F 48% 30.03 in 10.0 mi South 9.2 mph - N/A   Clear
10:40 PM 59.0 °F 39.2 °F 48% 30.03 in 10.0 mi South 6.9 mph - N/A   Clear
11:30 PM 53 °F 14 °F 11% 29.78 in 3 mi South 8.9 mph - -   Haze
11:40 PM 57.2 °F 39.2 °F 51% 30.03 in 10.0 mi South 9.2 mph - N/A   Clear